Weather History for KJWG - October, 2013

Change the Weather History Date:

Sunday, October 27, 2013

  Actual Average Record
Temperature  
Mean Temperature 50 °F -  
Max Temperature 68 °F 70 °F 82 °F (1979)
Min Temperature 32 °F 46 °F 28 °F (1993)
Degree Days  
Heating Degree Days 15    
Moisture  
Dew Point 37 °F    
Average Humidity 66    
Maximum Humidity 100    
Minimum Humidity 26    
Precipitation  
Precipitation 0.00 in - - ()
Sea Level Pressure  
Sea Level Pressure 30.08 in    
Wind  
Wind Speed 0 mph (North)    
Max Wind Speed 0 mph    
Max Gust Speed -    
Visibility 10 miles    
Events      
Averages and records for this station are not official NWS values.
T = Trace of Precipitation, MM = Missing Value Source: NWS Daily Summary

Daily Weather History Graph

Daily Weather History Graph

Search for Another Location

Airport or City:

Trip Planner

Search our weather history database for the weather conditions in past years. The results will help you decide how hot, cold, wet, or windy it might be!

Date:

Astronomy

Oct. 27, 2013 Rise Set
Actual Time 7:51 AM CDT 6:43 PM CDT
Civil Twilight 7:25 AM CDT 7:09 PM CDT
Nautical Twilight 6:55 AM CDT 7:39 PM CDT
Astronomical Twilight 6:25 AM CDT 8:09 PM CDT
Moon 1:02 AM CDT (10/27) 2:41 PM CDT (10/27)
Length of Visible Light 11h 44m
Length of Day
10h 51m
Last Quarter, 43% of the Moon is Illuminated
Oct 27
Last Quarter
Nov 3
New
Nov 9
First Quarter
Nov 17
Full
Nov 25
Last Quarter

Hourly Weather History & Observations

Time (CDT) Temp. Dew Point Humidity Pressure Visibility Wind Dir Wind Speed Gust Speed Precip Events Conditions
12:15 AM 48.4 °F 39.6 °F 72% 30.20 in 10.0 mi North - - N/A   Clear
12:35 AM 48.4 °F 38.5 °F 69% 30.19 in 10.0 mi North - - N/A   Clear
12:55 AM 47.7 °F 37.6 °F 68% 30.19 in 10.0 mi North - - N/A   Clear
1:15 AM 45.9 °F 36.9 °F 71% 30.18 in 10.0 mi North - - N/A   Clear
1:35 AM 41.7 °F 37.4 °F 85% 30.18 in 10.0 mi North - - N/A   Clear
1:55 AM 44.6 °F 36.0 °F 72% 30.18 in 10.0 mi North - - N/A   Clear
2:15 AM 44.2 °F 35.4 °F 71% 30.18 in 10.0 mi North - - N/A   Clear
2:35 AM 42.4 °F 35.1 °F 75% 30.18 in 10.0 mi North - - N/A   Clear
2:55 AM 39.4 °F 35.2 °F 85% 30.18 in 10.0 mi North - - N/A   Clear
3:15 AM 37.4 °F 35.6 °F 93% 30.18 in 10.0 mi North - - N/A   Clear
3:35 AM 36.7 °F 35.6 °F 96% 30.17 in 10.0 mi North - - N/A   Clear
3:55 AM 36.5 °F 36.5 °F 100% 30.17 in 10.0 mi North - - N/A   Clear
4:15 AM 36.5 °F 34.9 °F 94% 30.16 in 10.0 mi North - - N/A   Clear
4:35 AM 35.6 °F 35.2 °F 99% 30.16 in 10.0 mi North - - N/A   Clear
4:55 AM 35.6 °F 34.2 °F 94% 30.16 in 10.0 mi North - - N/A   Clear
5:15 AM 34.7 °F 33.8 °F 97% 30.15 in 10.0 mi North - - N/A   Clear
5:35 AM 34.7 °F 34.7 °F 100% 30.15 in 10.0 mi North - - N/A   Clear
5:55 AM 34.5 °F 34.5 °F 100% 30.15 in 10.0 mi North - - N/A   Clear
6:15 AM 33.8 °F 33.8 °F 100% 30.15 in 10.0 mi North - - N/A   Clear
6:35 AM 33.4 °F 32.9 °F 98% 30.14 in 10.0 mi North - - N/A   Clear
6:55 AM 32.9 °F 32.9 °F 100% 30.14 in 10.0 mi North - - N/A   Clear
7:15 AM 32.9 °F 32.9 °F 100% 30.14 in 10.0 mi North - - N/A   Clear
7:35 AM 32.4 °F 32.4 °F 100% 30.13 in 10.0 mi North - - N/A   Clear
7:55 AM 32.9 °F 32.9 °F 100% 30.13 in 10.0 mi North - - N/A   Clear
8:15 AM 32.5 °F 32.5 °F 100% 30.14 in 10.0 mi North - - N/A   Clear
8:35 AM 34.2 °F 34.2 °F 100% 30.14 in 10.0 mi North - - N/A   Clear
8:55 AM 36.5 °F 36.3 °F 99% 30.14 in 10.0 mi North - - N/A   Clear
9:15 AM 39.9 °F 36.1 °F 86% 30.13 in 10.0 mi North - - N/A   Clear
9:35 AM 43.3 °F 37.8 °F 81% 30.14 in 10.0 mi North - - N/A   Clear
9:55 AM 44.6 °F 38.1 °F 78% 30.14 in 10.0 mi North - - N/A   Clear
10:15 AM 47.5 °F 39.2 °F 73% 30.14 in 10.0 mi North - - N/A   Clear
10:35 AM 50.2 °F 39.4 °F 66% 30.14 in 10.0 mi North - - N/A   Clear
10:55 AM 53.2 °F 40.1 °F 61% 30.14 in 10.0 mi North - - N/A   Clear
11:15 AM 55.6 °F 40.8 °F 58% 30.14 in 10.0 mi North - - N/A   Clear
11:35 AM 57.6 °F 37.2 °F 47% 30.13 in 10.0 mi North - - N/A   Clear
11:55 AM 58.8 °F 37.0 °F 44% 30.13 in 10.0 mi North - - N/A   Clear
12:15 PM 59.4 °F 34.7 °F 40% 30.12 in 10.0 mi North - - N/A   Clear
12:35 PM 60.6 °F 36.1 °F 40% 30.12 in 10.0 mi Calm Calm - N/A   Clear
12:55 PM 61.7 °F 36.0 °F 38% 30.11 in 10.0 mi Calm Calm - N/A   Clear
1:15 PM 63.1 °F 37.2 °F 38% 30.10 in 10.0 mi Calm Calm - N/A   Clear
1:35 PM 63.7 °F 36.3 °F 36% 30.09 in 10.0 mi Calm Calm - N/A   Clear
1:55 PM 64.0 °F 36.9 °F 37% 30.07 in 10.0 mi Calm Calm - N/A   Clear
2:15 PM 64.9 °F 36.5 °F 35% 30.06 in 10.0 mi Calm Calm - N/A   Clear
2:35 PM 65.8 °F 35.8 °F 33% 30.04 in 10.0 mi Calm Calm - N/A   Clear
2:55 PM 66.4 °F 35.4 °F 32% 30.03 in 10.0 mi Calm Calm - N/A   Clear
3:15 PM 67.3 °F 34.5 °F 30% 30.02 in 10.0 mi Calm Calm - N/A   Clear
3:35 PM 67.5 °F 33.1 °F 28% 30.01 in 10.0 mi Calm Calm - N/A   Clear
3:55 PM 67.8 °F 32.5 °F 27% 30.01 in 10.0 mi Calm Calm - N/A   Clear
4:15 PM 68.0 °F 33.8 °F 28% 30.00 in 10.0 mi Calm Calm - N/A   Clear
4:35 PM 68.2 °F 32.4 °F 26% 29.99 in 10.0 mi Calm Calm - N/A   Clear
4:55 PM 68.0 °F 32.2 °F 26% 29.99 in 10.0 mi Calm Calm - N/A   Clear
5:15 PM 67.6 °F 33.8 °F 29% 29.98 in 10.0 mi Calm Calm - N/A   Clear
5:35 PM 67.1 °F 36.0 °F 32% 29.98 in 10.0 mi Calm Calm - N/A   Clear
5:55 PM 66.4 °F 34.5 °F 31% 29.97 in 10.0 mi Calm Calm - N/A   Clear
6:15 PM 64.9 °F 35.4 °F 33% 29.97 in 10.0 mi Calm Calm - N/A   Clear
6:35 PM 62.8 °F 35.6 °F 36% 29.97 in 10.0 mi North - - N/A   Clear
6:55 PM 60.8 °F 35.1 °F 38% 29.97 in 10.0 mi North - - N/A   Clear
7:15 PM 59.2 °F 35.6 °F 41% 29.97 in 10.0 mi North - - N/A   Clear
7:35 PM 58.1 °F 35.8 °F 43% 29.97 in 10.0 mi North - - N/A   Clear
7:55 PM 56.7 °F 36.0 °F 46% 29.98 in 10.0 mi North - - N/A   Clear
8:15 PM 56.1 °F 37.0 °F 49% 29.98 in 10.0 mi North - - N/A   Clear
8:35 PM 53.4 °F 37.4 °F 55% 29.98 in 10.0 mi North - - N/A   Clear
8:55 PM 54.5 °F 39.0 °F 56% 29.98 in 10.0 mi North - - N/A   Clear
9:15 PM 53.8 °F 40.5 °F 61% 29.98 in 10.0 mi North - - N/A   Clear
9:35 PM 52.2 °F 41.0 °F 66% 29.98 in 10.0 mi North - - N/A   Clear
9:55 PM 52.2 °F 43.9 °F 73% 29.98 in 10.0 mi North - - N/A   Clear
10:15 PM 51.3 °F 44.8 °F 78% 29.98 in 10.0 mi North - - N/A   Clear
10:35 PM 51.8 °F 47.3 °F 85% 29.98 in 10.0 mi North - - N/A   Clear
10:55 PM 53.6 °F 49.8 °F 87% 29.99 in 10.0 mi North - - N/A   Clear
11:15 PM 54.0 °F 50.9 °F 89% 29.99 in 10.0 mi North - - N/A   Clear
11:35 PM 54.0 °F 51.8 °F 92% 29.98 in 10.0 mi North - - N/A   Clear
11:55 PM 54.5 °F 52.7 °F 94% 29.98 in 10.0 mi North - - N/A   Clear